{"data":{"norad_id":62327,"epoch":"2026-09-22T21:15:59.490144Z","epoch_age_seconds":106187,"freshness":"FRESH","line1":"1 62327U 24240E   26265.88610521  .00000016  00000+0  29646-5 0  9992","line2":"2 62327  86.5025 310.5490 0001446  94.4199 265.7100 13.24414016 85573","mean_motion":13.24414016,"eccentricity":0.0001446,"inclination_deg":86.5025,"raan_deg":310.549,"arg_perigee_deg":94.4199,"mean_anomaly_deg":265.71,"bstar":2.9646e-6,"rev_number":8557,"period_min":108.72733017045,"perigee_km":1166.8157731348,"apogee_km":1168.9980890396,"semimajor_km":7546.0439310872,"source":"CELESTRAK","updated_at":"2026-09-23T09:00:21.354591Z"}}